This demonstration page uses our WeatherBlox Daily Observations layout. Learn more.

Left ArrowRight Arrow

Hourly Observations for February 12, 2019

Temp ( °F °C ) Dew Point ( °F °C ) Humidity (%) Winds ( mph kmh ) Pressure ( in mb ) Visibility ( mi km ) Precip ( " mm )
12:10 am 00:10 Cloudy with Light Snow 26 -3.3 22 -5.6 84 84 NNW 12 19 29.96 1014 6 10 0.00 0.03
12:17 am 00:17 Cloudy with Light Snow 26 -3.3 22 -5.6 84 84 NNW 10 17 29.97 1015 6 10 0.00 0.03
12:25 am 00:25 Cloudy with Light Snow 26 -3.3 22 -5.6 84 84 NNW 13 20 29.96 1014 4 6 0.00 0.03
12:52 am 00:52 Cloudy with Light Snow 26 -3.3 22 -5.6 84 84 NNW 13 20 29.93 1014 4 6 0.00 0.03
1:52 am 01:52 Cloudy with Mist and Fog 26 -3.3 21 -6.1 81 81 NNW 16 26 29.92 1013 5 8 0.00 0.03
2:52 am 02:52 Cloudy with Light Snow 26 -3.3 21 -6.1 81 81 NW 13 20 29.92 1013 5 8 0.00 0.03
3:13 am 03:13 Cloudy with Light Snow 26 -3.3 21 -6.1 81 81 NW 15 24 29.95 1014 5 8 0.00 0.03
3:52 am 03:52 Cloudy with Light Snow 25 -3.9 20 -6.7 81 81 NW 17 28 29.93 1014 6 10 0.00 0.03
4:42 am 04:42 Cloudy 26 -3.3 20 -6.7 78 78 NW 20 31 29.98 1015 7 11 0.00 0.03
4:52 am 04:52 Cloudy 26 -3.3 20 -6.7 78 78 NW 18 30 29.94 1014 7 11 0.00 0.03
5:52 am 05:52 Cloudy 27 -2.8 21 -6.1 78 78 NW 26 43 29.97 1015 8 13 0.00 0.00
6:52 am 06:52 Windy with Snow Likely 26 -3.3 19 -7.2 75 75 NW 29 46 29.99 1016 7 11 0.00 0.03
7:52 am 07:52 Cloudy 23 -5 17 -8.3 78 78 NW 16 26 30.04 1017 8 13 0.00 0.03
8:38 am 08:38 Cloudy 19 -7.2 13 -10.6 77 77 WNW 24 39 30.11 1020 8 13 0.00 0.00
8:52 am 08:52 Mostly Cloudy with Light Snow 18 -7.8 12 -11.1 77 77 NW 17 28 30.08 1019 8 13 0.00 0.03
9:21 am 09:21 Partly Cloudy 17 -8.3 9 -12.8 70 70 NW 15 24 30.15 1021 7 11 0.00 0.00
9:52 am 09:52 Mostly Sunny 17 -8.3 7 -13.9 64 64 NW 22 35 30.10 1019 10 16 0.00 0.00
10:52 am 10:52 Sunny 17 -8.3 7 -13.9 64 64 NW 21 33 30.12 1020 10 16 0.00 0.00
11:52 am 11:52 Sunny 19 -7.2 7 -13.9 59 59 NW 24 39 30.13 1020 10 16 0.00 0.00
12:52 pm 12:52 Sunny 20 -6.7 7 -13.9 57 57 WNW 20 31 30.14 1021 10 16 0.00 0.00
1:52 pm 13:52 Sunny 22 -5.6 10 -12.2 60 60 NW 18 30 30.12 1020 10 16 0.00 0.00
2:52 pm 14:52 Sunny 24 -4.4 11 -11.7 57 57 WNW 17 28 30.13 1020 10 16 0.00 0.00
3:52 pm 15:52 Sunny 25 -3.9 11 -11.7 55 55 NW 17 28 30.14 1021 10 16 0.00 0.00
4:52 pm 16:52 Sunny 24 -4.4 12 -11.1 60 60 NW 17 28 30.15 1021 10 16 0.00 0.00
5:52 pm 17:52 Sunny 21 -6.1 11 -11.7 65 65 NW 10 17 30.18 1022 10 16 0.00 0.00
6:52 pm 18:52 Clear 14 -10 7 -13.9 73 73 N 8 13 30.19 1023 10 16 0.00 0.00
7:52 pm 19:52 Clear 12 -11.1 5 -15 73 73 N 10 17 30.21 1023 10 16 0.00 0.00
8:52 pm 20:52 Clear 10 -12.2 4 -15.6 76 76 N 9 15 30.23 1024 10 16 0.00 0.00
9:52 pm 21:52 Clear 9 -12.8 2 -16.7 73 73 NW 8 13 30.24 1024 10 16 0.00 0.00
10:52 pm 22:52 Clear 12 -11.1 3 -16.1 67 67 NNW 7 11 30.23 1024 10 16 0.00 0.00
11:52 pm 23:52 Clear 10 -12.2 2 -16.7 69 69 N 7 11 30.22 1024 10 16 0.00 0.00

Powered by AerisWeather